Voltar ao catálogo

SL-16 DEB

AtivoLEO
NORAD 22388·DEBRIS·🇷🇺 Russia

Lançado Dec 25, 1992 de Baikonur Cosmodrome

Loading…

Próximas Passagens (próximas 24 horas)

TLE

AtualizadoSource: Space-Track

Época: Sep 14, 2026, 10:13 UTC

1 22388U 92093CD  26257.42609264  .00001114  00000-0  53705-3 0  9991
2 22388  70.9658   2.6162 0093764 116.2072   2.8342 14.18551419725063

Acompanhe SL-16 DEB em tempo real com AllMySat

Download on the App Store